Regional Weather Roundup
Issued by NWS State College, PA

Home | Current Version | Previous Version | Text Only | Print | Product List | Glossary On
Versions: 1 2 3 4 5 6 7 8 9 10 11 12 13 14 15 16 17 18 19 20 21 22 23 24 25 26 27 28 29 30 31 32 33 34 35 36 37 38 39 40 41 42 43 44 45 46 47 48 49 50
000
ASUS41 KCTP 311610
RWRCTP

REGIONAL WEATHER ROUNDUP
NATIONAL WEATHER SERVICE STATE COLLEGE PA
1200 PM EDT TUE MAR 31 2015

Note: "fair" indicates few or no clouds below 12,000 feet with no
significant weather and/or obstructions to visibility.

* = STATION THAT DOES NOT REPORT PRECIPITATION /E.G. RAIN...SNOW...ETC/
    THUNDER OR FOG.

PAZ002>004-007>009-013>016-020>023-029>032-311700-
WESTERN PENNSYLVANIA

CITY           SKY/WX    TMP DP  RH WIND       PRES   REMARKS
ERIE           LGT SNOW  33  31  92 NE10      29.74F VSB 1
MEADVILLE      CLOUDY    34  32  92 NE8       29.66F FOG
FRANKLIN*      CLOUDY    34  28  80 N6        29.68S
NEW CASTLE     FAIR      49  39  68 CALM      29.65F
BEAVER COUNTY  CLOUDY    55  32  41 W14G24    29.64F
BUTLER*        PTSUNNY   46  37  71 NE5       29.67F
PITTSBURGH INT PTSUNNY   56  28  34 W18G31    29.64F
PITTSBURGH     CLOUDY    57  25  29 SW14G24   29.64F
INDIANA*       CLOUDY    48  34  57 SW10G18   29.69F
LATROBE        PTSUNNY   55  28  35 SW16G25   29.68F
WASHINGTON CO* CLOUDY    57  30  35 SW18G29   29.67F
$$

PAZ004>006-010>012-017>019-024>028-033>037-041-042-045-046-049>053-311700-
CENTRAL PENNSYLVANIA

CITY           SKY/WX    TMP DP  RH WIND       PRES   REMARKS
BRADFORD       SNOW      30  27  88 E5        29.69F VSB 1/4
DUBOIS         MIX PCPN  35  32  88 E5        29.66F FOG
CLEARFIELD     LGT SNOW  33  31  92 E6        29.71F FOG
JOHNSTOWN      LGT RAIN  50  26  39 SW15G29   29.65F
ALTOONA        CLOUDY    49  28  44 S6        29.69F
STATE COLLEGE  LGT SNOW  34  32  93 N8        29.73F VSB 1
WILLIAMSPORT   SNOW      33  31  92 E8        29.80F VSB 1/2
SELINSGROVE    CLOUDY    41  31  67 NE9       29.79F
FT INDIANTOWN  NOT AVBL
CAPITAL CITY   CLOUDY    49  29  46 E10       29.76F
HARRISBURG     CLOUDY    48  30  49 SE9       29.76F
YORK           PTSUNNY   56  28  34 SE7       29.75F
$$

PAZ038>040-043-044-047-048-054-055-060>062-067>071-311700-
EASTERN PENNSYLVANIA

CITY           SKY/WX    TMP DP  RH WIND       PRES   REMARKS
SCRANTON       CLOUDY    38  22  52 VRB5      29.78F
MOUNT POCONO   CLOUDY    34  23  64 VRB5      29.75F
ALLENTOWN      CLOUDY    44  23  43 CALM      29.82F
QUAKERTOWN*    PTSUNNY   45  25  45 SW7       29.83F
READING        CLOUDY    46  23  40 CALM      29.80F
LANCASTER      CLOUDY    47  30  51 E10       29.78F
COATESVILLE    PTSUNNY   48  28  46 SE5       29.81F
POTTSTOWN      CLOUDY    45  25  45 VRB5      29.84F
BLUE BELL      PTSUNNY   46  27  46 CALM      29.83F
DOYLESTOWN     CLOUDY    43  24  47 SW6       29.83F
WILLOW GROVE   NOT AVBL
NORTH PHILA    CLOUDY    49  20  31 W7        29.86F
PHILADELPHIA   PTSUNNY   50  25  37 CALM      29.85F
$$


USA.gov is the U.S. government's official web portal to all federal, state and local government web resources and services.